Houghton, MI

5:02 PM EST on February 24, 2018 (GMT -0500)
Houghton County Memorial

Weather History for KCMX - January, 2013

Change the Weather History Date:

Saturday, January 26, 2013

  Actual Average Record
Temperature  
Mean Temperature 16 °F -  
Max Temperature 19 °F 20 °F 43 °F (2018)
Min Temperature 14 °F 7 °F -13 °F (1977)
Degree Days  
Heating Degree Days 48    
Moisture  
Dew Point 12 °F    
Average Humidity 81    
Maximum Humidity 93    
Minimum Humidity 68    
Precipitation  
Precipitation 0.00 in - - ()
Sea Level Pressure  
Sea Level Pressure 30.23 in    
Wind  
Wind Speed 10 mph (North)    
Max Wind Speed 18 mph    
Max Gust Speed 23 mph    
Visibility 6 miles    
Events Snow    
Averages and records for this station are not official NWS values.
T = Trace of Precipitation, MM = Missing Value Source: NWS Daily Summary

Daily Weather History Graph

Daily Weather History Graph

Search for Another Location

Airport or City:

Trip Planner

Search our weather history database for the weather conditions in past years. The results will help you decide how hot, cold, wet, or windy it might be!

Date:

Astronomy

Jan. 26, 2013 Rise Set
Actual Time 8:26 AM EST 5:47 PM EST
Civil Twilight 7:52 AM EST 6:20 PM EST
Nautical Twilight 7:15 AM EST 6:57 PM EST
Astronomical Twilight 6:39 AM EST 7:34 PM EST
Moon 5:45 PM EST (1/26) 7:41 AM EST (1/26)
Length of Visible Light 10h 28m
Length of Day
9h 21m
Full, 100% of the Moon is Illuminated
Jan 26
Full
Jan 26
Full
Feb 3
Last Quarter
Feb 10
New
Feb 17
First Quarter

Hourly Weather History & Observations

Time (EST) Temp. Windchill Dew Point Humidity Pressure Visibility Wind Dir Wind Speed Gust Speed Precip Events Conditions
12:02 AM 17.6 °F 3.2 °F 14.0 °F 86% 30.03 in 1.8 mi NNW 15.0 mph - 0.00 in Snow Light Snow
12:21 AM 17.6 °F 3.7 °F 15.8 °F 93% 30.04 in 1.0 mi NW 13.8 mph - 0.00 in Snow Light Snow
12:31 AM 17.6 °F 4.3 °F 14.0 °F 86% 30.04 in 1.2 mi NW 12.7 mph - 0.00 in Snow Light Snow
12:53 AM 18.0 °F 4.2 °F 14.0 °F 84% 30.12 in 1.2 mi North 13.8 mph - 0.00 in Snow Light Snow
1:05 AM 17.6 °F 3.2 °F 14.0 °F 86% 30.06 in 1.0 mi North 15.0 mph - 0.00 in Snow Light Snow
1:53 AM 17.1 °F 3.6 °F 14.0 °F 88% 30.16 in 1.5 mi North 12.7 mph 23.0 mph 0.00 in Snow Light Snow
2:22 AM 17.6 °F 4.3 °F 12.2 °F 79% 30.11 in 2.0 mi NNW 12.7 mph 20.7 mph 0.00 in Snow Light Snow
2:36 AM 17.6 °F 3.7 °F 12.2 °F 79% 30.11 in 2.0 mi North 13.8 mph 20.7 mph 0.00 in Snow Light Snow
2:53 AM 16.0 °F -0.4 °F 12.9 °F 88% 30.19 in 2.0 mi North 18.4 mph - 0.00 in Snow Light Snow
3:14 AM 15.8 °F 1.4 °F 12.2 °F 86% 30.14 in 4.0 mi NNW 13.8 mph - 0.00 in Snow Light Snow
3:25 AM 15.8 °F 2.7 °F 12.2 °F 86% 30.15 in 6.0 mi North 11.5 mph - 0.00 in Snow Light Snow
3:38 AM 15.8 °F 2.7 °F 12.2 °F 86% 30.15 in 2.0 mi NNW 11.5 mph - 0.00 in Snow Light Snow
3:50 AM 15.8 °F 3.4 °F 12.2 °F 86% 30.15 in 2.0 mi North 10.4 mph - 0.00 in Snow Light Snow
3:53 AM 16.0 °F 2.9 °F 12.0 °F 84% 30.22 in 2.0 mi NNW 11.5 mph - 0.00 in Snow Light Snow
4:10 AM 15.8 °F 2.1 °F 12.2 °F 86% 30.16 in 5.0 mi NNW 12.7 mph - 0.00 in Snow Light Snow
4:53 AM 15.1 °F 2.5 °F 10.9 °F 84% 30.24 in 9.0 mi North 10.4 mph - 0.00 in Snow Light Snow
5:53 AM 15.1 °F 3.3 °F 10.9 °F 84% 30.25 in 3.0 mi NNW 9.2 mph - 0.00 in Snow Light Snow
6:09 AM 15.8 °F 4.2 °F 10.4 °F 79% 30.18 in 2.0 mi North 9.2 mph - 0.00 in Snow Light Snow
6:17 AM 15.8 °F 4.2 °F 10.4 °F 79% 30.18 in 1.8 mi North 9.2 mph - 0.00 in Snow Light Snow
6:25 AM 15.8 °F 6.1 °F 10.4 °F 79% 30.18 in 2.5 mi North 6.9 mph - 0.00 in Snow Light Snow
6:32 AM 15.8 °F 7.2 °F 10.4 °F 79% 30.19 in 5.0 mi North 5.8 mph - 0.00 in Snow Light Snow
6:53 AM 15.1 °F 4.2 °F 10.9 °F 84% 30.27 in 6.0 mi North 8.1 mph - 0.00 in Snow Light Snow
7:53 AM 14.0 °F 8.2 °F 10.0 °F 84% 30.29 in 10.0 mi NE 3.5 mph - 0.00 in   Overcast
8:53 AM 15.1 °F - 9.0 °F 77% 30.32 in 10.0 mi Calm Calm - N/A   Overcast
9:53 AM 15.1 °F - 9.0 °F 77% 30.34 in 7.0 mi Calm Calm - 0.00 in Snow Light Snow
10:53 AM 16.0 °F - 10.9 °F 81% 30.36 in 6.0 mi Calm Calm - 0.00 in Snow Light Snow
11:53 AM 16.0 °F - 10.9 °F 81% 30.37 in 5.0 mi Calm Calm - 0.00 in Snow Light Snow
12:53 PM 17.1 °F - 10.0 °F 74% 30.36 in 6.0 mi Calm Calm - 0.00 in Snow Light Snow
1:53 PM 17.1 °F - 9.0 °F 71% 30.35 in 10.0 mi Calm Calm - 0.00 in   Overcast
2:53 PM 17.1 °F 11.7 °F 10.0 °F 74% 30.35 in 9.0 mi South 3.5 mph - 0.00 in Snow Light Snow
3:53 PM 18.0 °F - 9.0 °F 68% 30.35 in 10.0 mi Calm Calm - N/A   Overcast
4:42 PM 15.8 °F 8.6 °F 8.6 °F 73% 30.27 in 10.0 mi SSE 4.6 mph - N/A   Scattered Clouds
4:53 PM 16.0 °F 8.8 °F 9.0 °F 74% 30.35 in 10.0 mi South 4.6 mph - N/A   Clear
5:53 PM 16.0 °F 8.8 °F 10.0 °F 77% 30.32 in 10.0 mi ESE 4.6 mph - N/A   Overcast
6:53 PM 16.0 °F 7.4 °F 10.0 °F 77% 30.32 in 10.0 mi East 5.8 mph - N/A   Overcast
7:53 PM 17.1 °F 7.6 °F 12.0 °F 81% 30.31 in 10.0 mi ESE 6.9 mph - N/A   Overcast
8:53 PM 18.0 °F 8.7 °F 12.9 °F 81% 30.29 in 10.0 mi ESE 6.9 mph - N/A   Overcast
9:53 PM 19.0 °F 11.1 °F 14.0 °F 81% 30.28 in 10.0 mi ESE 5.8 mph - N/A   Overcast
10:53 PM 19.0 °F 9.0 °F 14.0 °F 81% 30.27 in 10.0 mi ESE 8.1 mph - N/A   Overcast
11:53 PM 19.9 °F 10.1 °F 14.0 °F 78% 30.26 in 10.0 mi SSE 8.1 mph - N/A   Overcast